DW1653 Weather Reports


time (UTC)temp
F
wind
direction
speed
knots
gust
knots
rain 1hr
in
rain 24hr
in
rain mn
in
humidity
%
barometer
mb
20260505082325 58 209 1.7 3.5 0.00 0.00 0.00 83 1011.1
20260505081816 57 193 1.7 6.1 0.00 0.00 0.00 83 1011.1
20260505081328 57 188 1.7 6.1 0.00 0.00 0.00 83 1011.1
20260505080823 57 229 2.6 4.3 0.00 0.00 0.00 84 1011.1
20260505080315 57 241 1.7 4.3 0.00 0.00 0.00 84 1011.0
20260505075826 57 213 1.7 4.3 0.00 0.00 0.00 84 1011.1
20260505075322 57 227 1.7 3.5 0.00 0.00 0.00 84 1011.1
20260505074833 57 213 1.7 3.5 0.00 0.00 0.00 84 1011.1
20260505074346 57 211 1.7 4.3 0.00 0.00 0.00 84 1011.1
20260505073818 57 183 2.6 5.2 0.00 0.00 0.00 85 1011.1
20260505073330 57 204 2.6 5.2 0.00 0.00 0.00 85 1011.0
20260505072821 57 194 1.7 6.1 0.00 0.00 0.00 85 1011.1
20260505072332 56 212 2.6 6.1 0.00 0.00 0.00 86 1011.0
20260505071844 56 235 1.7 4.3 0.00 0.00 0.00 86 1011.0
20260505071315 56 244 1.7 5.2 0.00 0.00 0.00 86 1010.9
20260505070826 56 180 1.7 6.1 0.00 0.00 0.00 86 1010.9
20260505070320 56 215 1.7 6.1 0.00 0.00 0.00 86 1010.9
20260505065831 56 214 1.7 4.3 0.00 0.00 0.00 86 1011.0
20260505065342 56 197 1.7 4.3 0.00 0.00 0.00 87 1010.9
20260505064852 56 199 1.7 4.3 0.00 0.00 0.00 87 1011.0
20260505064323 56 228 0.9 3.5 0.00 0.00 0.00 87 1011.0
20260505063815 56 216 1.7 3.5 0.00 0.00 0.00 87 1011.0
20260505063327 56 188 1.7 2.6 0.00 0.00 0.00 87 1011.0
20260505062838 56 223 0.9 3.5 0.00 0.00 0.00 87 1011.0
20260505062329 56 229 0.9 4.3 0.00 0.00 0.00 87 1011.0
20260505061820 56 232 1.7 4.3 0.00 0.00 0.00 87 1011.1
20260505061314 56 221 0.9 7.8 0.00 0.00 0.00 87 1011.0
20260505060828 56 189 2.6 7.8 0.00 0.00 0.00 87 1011.1
20260505060319 56 206 2.6 8.7 0.00 0.00 0.00 87 1011.1
20260505055831 56 204 3.5 8.7 0.00 0.00 0.00 87 1011.3
20260505055322 56 190 3.5 11.3 0.00 0.00 0.00 86 1011.2
20260505054854 56 248 3.5 11.3 0.00 0.00 0.00 86 1011.3
20260505054324 56 221 3.5 12.2 0.00 0.00 0.00 86 1011.2
20260505053818 57 159 5.2 13.0 0.00 0.00 0.00 86 1011.2
20260505053350 57 155 4.3 10.4 0.00 0.00 0.00 86 1011.1
20260505052840 57 202 4.3 10.4 0.00 0.00 0.00 86 1011.2
20260505052334 57 189 4.3 12.2 0.00 0.00 0.00 86 1011.3
20260505051825 57 188 5.2 12.2 0.00 0.00 0.00 86 1011.3
20260505051317 57 127 3.5 10.4 0.00 0.00 0.00 86 1011.4
20260505050848 57 162 5.2 10.4 0.00 0.00 0.00 86 1011.4
20260505050339 57 175 4.3 9.6 0.00 0.00 0.00 86 1011.5
20260505041324 58 159 4.3 9.6 0.00 0.00 0.00 84 1011.7
20260505040819 58 188 5.2 10.4 0.00 0.00 0.00 84 1011.6
20260505040331 58 187 3.5 10.4 0.00 0.00 0.00 84 1011.6
20260505035821 58 212 4.3 10.4 0.00 0.00 0.00 83 1011.7
20260505035353 58 196 4.3 9.6 0.00 0.00 0.00 83 1011.7
20260505034824 58 188 3.5 10.4 0.00 0.00 0.00 83 1011.7
20260505034315 58 155 3.5 8.7 0.00 0.00 0.00 82 1011.7
20260505033847 58 218 3.5 8.7 0.00 0.00 0.00 82 1011.7
20260505033324 58 236 3.5 9.6 0.00 0.00 0.00 81 1011.6
20260505032855 58 207 2.6 9.6 0.00 0.00 0.00 81 1011.7
20260505032327 59 192 5.2 9.6 0.00 0.00 0.00 80 1011.8
20260505031818 59 197 2.6 9.6 0.00 0.00 0.00 80 1011.9
20260505031330 59 229 3.5 9.6 0.00 0.00 0.00 79 1011.9
20260505030824 59 216 4.3 9.6 0.00 0.00 0.00 79 1011.9
20260505030314 59 207 3.5 10.4 0.00 0.00 0.00 79 1011.8
20260505025828 59 200 6.1 10.4 0.00 0.00 0.00 78 1011.9
20260505025324 59 154 3.5 9.6 0.00 0.00 0.00 78 1012.0
20260505024815 59 205 4.3 9.6 0.00 0.00 0.00 78 1011.9
20260505024330 59 186 3.5 7.8 0.00 0.00 0.00 78 1011.9
20260505023822 59 188 3.5 7.8 0.00 0.00 0.00 78 1012.0
20260505023353 59 187 4.3 7.8 0.00 0.00 0.00 78 1012.0
20260505022823 59 182 2.6 6.1 0.00 0.00 0.00 77 1012.0
20260505022319 59 209 2.6 6.1 0.00 0.00 0.00 77 1012.1
20260505021831 59 204 2.6 7.0 0.00 0.00 0.00 77 1012.1
20260505021322 59 203 2.6 7.0 0.00 0.00 0.00 77 1012.1
20260505020817 59 195 3.5 7.0 0.00 0.00 0.00 77 1012.1
20260505020311 59 183 3.5 7.0 0.00 0.00 0.00 77 1012.1
20260505015826 59 186 2.6 7.0 0.00 0.00 0.00 77 1012.1
20260505015319 59 200 3.5 6.1 0.00 0.00 0.00 77 1012.0
20260505014829 59 211 2.6 6.1 0.00 0.00 0.00 77 1012.0
20260505014341 59 206 2.6 6.1 0.00 0.00 0.00 78 1012.0
20260505013831 59 213 2.6 9.6 0.00 0.00 0.00 78 1012.0
20260505013323 59 230 3.5 9.6 0.00 0.00 0.00 78 1012.0
20260505012818 59 174 4.3 7.0 0.00 0.00 0.00 79 1012.0
20260505012333 59 155 3.5 7.0 0.00 0.00 0.00 79 1011.9
20260505011316 59 180 4.3 9.6 0.00 0.00 0.00 80 1011.9
20260505010338 58 161 3.5 7.0 0.00 0.00 0.00 80 1011.8
20260505005849 59 187 2.6 10.4 0.00 0.00 0.00 80 1011.8
20260505005340 58 179 3.5 10.4 0.00 0.00 0.00 80 1011.7
20260505004833 59 167 5.2 9.6 0.00 0.00 0.00 80 1011.6
20260505004325 59 173 3.5 8.7 0.00 0.00 0.00 80 1011.6
20260505003823 59 214 4.3 9.6 0.00 0.00 0.00 79 1011.5
20260505003315 59 185 4.3 9.6 0.00 0.00 0.00 79 1011.5
20260505002828 59 175 4.3 9.6 0.00 0.00 0.00 79 1011.5
20260505002319 59 195 3.5 11.3 0.00 0.00 0.00 79 1011.3
20260505001831 59 169 6.1 11.3 0.00 0.00 0.00 78 1011.2
20260505001325 59 209 5.2 11.3 0.00 0.00 0.00 78 1011.2
20260505000816 59 165 4.3 11.3 0.00 0.00 0.00 77 1011.0
20260505000327 59 207 2.6 9.6 0.00 0.00 0.00 76 1011.0
20260504235823 59 207 4.3 13.0 0.00 0.00 0.00 76 1011.0
20260504235333 60 182 5.2 13.9 0.00 0.00 0.00 75 1010.9
20260504234825 60 200 4.3 16.5 0.00 0.00 0.00 75 1011.0
20260504234339 60 199 4.3 16.5 0.00 0.00 0.00 74 1010.9
20260504233829 61 178 5.2 14.8 0.00 0.00 0.00 73 1010.9
20260504233320 61 207 7.0 14.8 0.00 0.00 0.00 73 1010.8
20260504232815 61 138 3.5 12.2 0.00 0.00 0.00 72 1010.8
20260504232326 61 167 5.2 14.8 0.00 0.00 0.00 71 1010.7
20260504231819 62 163 5.2 14.8 0.00 0.00 0.00 70 1010.7
20260504231316 62 198 6.1 14.8 0.00 0.00 0.00 69 1010.7
20260504230827 62 175 7.0 13.9 0.00 0.00 0.00 69 1010.6
20260504230318 63 194 4.3 12.2 0.00 0.00 0.00 68 1010.6
20260504225849 63 164 4.3 15.6 0.00 0.00 0.00 67 1010.6
20260504225320 63 200 3.5 14.8 0.00 0.00 0.00 66 1010.6
20260504224831 64 200 5.2 15.6 0.00 0.00 0.00 65 1010.5
20260504224323 64 188 7.0 15.6 0.00 0.00 0.00 64 1010.5
20260504223834 64 213 5.2 14.8 0.00 0.00 0.00 63 1010.5
20260504223346 64 153 5.2 14.8 0.00 0.00 0.00 64 1010.5
20260504222819 64 140 7.0 17.4 0.00 0.00 0.00 64 1010.4
20260504222334 64 184 7.8 17.4 0.00 0.00 0.00 64 1010.5
20260504221824 64 172 6.1 19.1 0.00 0.00 0.00 64 1010.4
20260504221315 65 176 7.0 15.6 0.00 0.00 0.00 62 1010.5
20260504220827 65 180 7.0 19.1 0.00 0.00 0.00 61 1010.5
20260504220319 65 139 7.0 19.1 0.00 0.00 0.00 60 1010.5
20260504215831 65 145 8.7 18.2 0.00 0.00 0.00 60 1010.5
20260504215326 66 178 10.4 16.5 0.00 0.00 0.00 59 1010.5
20260504214823 66 200 7.0 18.2 0.00 0.00 0.00 57 1010.5
20260504214314 66 209 8.7 18.2 0.00 0.00 0.00 57 1010.5
20260504213828 66 288 5.2 16.5 0.00 0.00 0.00 56 1010.6
20260504213319 66 217 7.8 19.1 0.00 0.00 0.00 55 1010.7
20260504212831 66 215 9.6 19.1 0.00 0.00 0.00 55 1010.6
20260504212323 66 212 6.1 18.2 0.00 0.00 0.00 56 1010.6
20260504211836 66 157 8.7 16.5 0.00 0.00 0.00 56 1010.5
20260504211329 66 194 7.0 14.8 0.00 0.00 0.00 56 1010.6
20260504210821 66 178 7.8 14.8 0.00 0.00 0.00 56 1010.5
20260504210316 66 95 6.1 19.1 0.00 0.00 0.00 57 1010.5
20260504205828 66 178 7.8 19.1 0.00 0.00 0.00 56 1010.4
20260504205342 66 124 7.0 18.2 0.00 0.00 0.00 56 1010.4
20260504204832 66 150 6.1 14.8 0.00 0.00 0.00 58 1010.4
20260504204323 66 134 7.0 14.8 0.00 0.00 0.00 58 1010.5
20260504203834 65 218 6.1 15.6 0.00 0.00 0.00 60 1010.4
20260504203327 64 138 7.0 15.6 0.00 0.00 0.00 63 1010.4
20260504202821 64 205 5.2 13.9 0.00 0.00 0.00 64 1010.5
20260504202332 64 143 5.2 10.4 0.00 0.00 0.00 63 1010.6
20260504201824 65 198 5.2 13.9 0.00 0.00 0.00 62 1010.5
20260504201319 65 168 7.0 13.9 0.00 0.00 0.00 62 1010.6
20260504200851 64 131 5.2 15.6 0.00 0.00 0.00 63 1010.6
20260504200321 64 157 7.0 15.6 0.00 0.00 0.00 63 1010.7
20260504195812 64 262 8.7 15.6 0.00 0.00 0.00 61 1010.7
20260504195328 65 165 6.1 15.6 0.00 0.00 0.00 61 1010.8
20260504194331 66 181 7.8 19.1 0.00 0.00 0.00 59 1010.8
20260504193826 67 165 7.8 12.2 0.00 0.00 0.00 56 1010.8
20260504193324 68 184 6.1 13.0 0.00 0.00 0.00 55 1010.8
20260504192839 68 169 6.1 17.4 0.00 0.00 0.00 53 1011.0
20260504191822 69 179 6.1 13.9 0.00 0.00 0.00 52 1011.0
20260504191337 69 184 4.3 15.6 0.00 0.00 0.00 52 1011.2
20260504190827 69 238 3.5 15.6 0.00 0.00 0.00 55 1011.3
20260504190318 68 159 5.2 9.6 0.00 0.00 0.00 56 1011.3
20260504185830 69 145 6.1 14.8 0.00 0.00 0.00 55 1011.4
20260504185321 70 161 6.1 13.0 0.00 0.00 0.00 54 1011.5
20260504184813 69 134 5.2 13.9 0.00 0.00 0.00 54 1011.5
20260504184331 69 139 3.5 13.9 0.00 0.00 0.00 56 1011.6
20260504183822 69 202 6.1 13.9 0.00 0.00 0.00 56 1011.7
20260504183314 68 181 5.2 11.3 0.00 0.00 0.00 56 1011.7
20260504182825 69 151 6.1 16.5 0.00 0.00 0.00 56 1011.8
20260504182337 70 171 7.0 16.5 0.00 0.00 0.00 54 1011.9
20260504181811 69 234 5.2 13.0 0.00 0.00 0.00 56 1011.8
20260504181325 69 186 6.1 12.2 0.00 0.00 0.00 54 1011.9
20260504180817 69 119 4.3 11.3 0.00 0.00 0.00 54 1012.0
20260504180314 69 183 3.5 11.3 0.00 0.00 0.00 55 1012.1
20260504175829 70 189 7.0 11.3 0.00 0.00 0.00 53 1012.1
20260504175320 70 143 7.0 11.3 0.00 0.00 0.00 51 1012.0
20260504174854 71 186 3.5 13.9 0.00 0.00 0.00 51 1012.0
20260504174344 71 196 6.1 13.9 0.00 0.00 0.00 49 1012.2
20260504173818 72 172 3.5 13.9 0.00 0.00 0.00 49 1012.3
20260504173329 72 169 6.1 13.0 0.00 0.00 0.00 44 1012.3
20260504172821 73 175 3.5 9.6 0.00 0.00 0.00 46 1012.2
20260504172355 73 148 3.5 9.6 0.00 0.00 0.00 46 1012.4
20260504171825 75 171 4.3 13.9 0.00 0.00 0.00 30 1012.5
20260504171320 75 263 3.5 9.6 0.00 0.00 0.00 29 1012.5
20260504170833 75 167 2.6 8.7 0.00 0.00 0.00 31 1012.5
20260504170322 74 261 1.7 13.0 0.00 0.00 0.00 30 1012.6
20260504160324 72 294 5.2 12.2 0.00 0.00 0.00 32 1013.3
20260504150817 69 209 3.5 14.8 0.00 0.00 0.00 37 1013.8
20260504150329 69 233 7.0 14.8 0.00 0.00 0.00 36 1013.8
20260504141319 66 228 5.2 15.6 0.00 0.00 0.00 38 1014.2
20260504140831 66 263 5.2 15.6 0.00 0.00 0.00 37 1014.3
20260504140322 65 244 6.1 11.3 0.00 0.00 0.00 39 1014.2
20260504130325 60 219 4.3 8.7 0.00 0.00 0.00 54 1014.8
20260504110333 50 247 2.6 10.4 0.00 0.00 0.00 70 1015.7
20260504100318 49 241 4.3 13.0 0.00 0.00 0.00 66 1015.4